Volver al catálogo

DMSP 5D-2 F13 DEB

ActivoSSO
NORAD 40611·DEBRIS·🇺🇸 United States

Lanzado Mar 24, 1995 desde Vandenberg Space Force Base

Loading…

Próximos Pases (próximas 24 horas)

TLE

ActualizadoSource: Space-Track

Época: Sep 13, 2026, 13:17 UTC

1 40611U 95015FJ  26256.55403992  .00002831  00000-0  93940-3 0  9992
2 40611  98.7672 296.2092 0026838 224.7475 135.1546 14.38402519591176

Sigue DMSP 5D-2 F13 DEB en tiempo real con AllMySat

Download on the App Store